Location: Saratoga Springs
(43.0831°N, 73.7850°W)
Time: 03:25:17
(UTC-04:00)

Vanguard 1 Rocket - Pass Details

Date: 22 April 2024
Orbit: 651 x 4220 km, 34.3° (Epoch: 17 May)

Event Time Altitude Azimuth Distance (km) Brightness Sun altitude
Rises 21:52:01 0° 262° (W) 3,405 10.9 -20.6°
Reaches altitude 10° 21:54:11 10° 254° (WSW) 2,685 10.2 -20.8°
Maximum altitude 22:00:08 41° 185° (S) 1,869 8.6 -21.6°
Enters shadow 22:03:11 32° 147° (SSE) 2,443 9.0 -22.0°
Drops below altitude 10° 22:10:40 10° 121° (ESE) 4,729 - -23.0°
Sets 22:15:54 0° 116° (ESE) 6,356 - -23.6°
